![]() |
EMODnet Physics ERDDAP
Easier access to scientific data |
log in|
Brought to you by EMODnet Physics |
| Dataset Title: | NDBC - Collection of dew point temperature (DEWT) TimeSeries - IN SITU MultiPointTimeSeriesObservation
|
| Institution: | NDBC (Dataset ID: TS_DEWT_NDBC) |
| Information: | Summary
| License
| FGDC
| ISO 19115
| Metadata
| Background
| Subset
| Data Access Form
| Make a graph
|
| Name | Last modified | Size | Description | |
|---|---|---|---|---|
| Parent Directory | - | - | ||
| 51001_TS_DEWT_012016.nc | 23-Dec-2024 22:39 | 437383 | ||
| 51001_TS_DEWT_012017.nc | 23-Dec-2024 22:43 | 418800 | ||
| 51001_TS_DEWT_012018.nc | 23-Dec-2024 22:48 | 992906 | ||
| 51001_TS_DEWT_012019.nc | 20-Jan-2026 09:59 | 917885 | ||
| 51001_TS_DEWT_012020.nc | 20-Jan-2026 10:07 | 992742 | ||
| 51001_TS_DEWT_012021.nc | 20-Jan-2026 10:15 | 995113 | ||
| 51001_TS_DEWT_012022.nc | 20-Jan-2026 10:23 | 918996 | ||
| 51001_TS_DEWT_012023.nc | 20-Jan-2026 10:33 | 995170 | ||
| 51001_TS_DEWT_012024.nc | 20-Jan-2026 10:41 | 992738 | ||
| 51001_TS_DEWT_012025.nc | 20-Jan-2026 10:47 | 994087 | ||
| 51001_TS_DEWT_012026.nc | 02-Feb-2026 15:57 | 994721 | ||
| 51001_TS_DEWT_022016.nc | 23-Dec-2024 22:40 | 995150 | ||
| 51001_TS_DEWT_022017.nc | 23-Dec-2024 22:43 | 994281 | ||
| 51001_TS_DEWT_022018.nc | 23-Dec-2024 22:48 | 919100 | ||
| 51001_TS_DEWT_022019.nc | 20-Jan-2026 09:59 | 994441 | ||
| 51001_TS_DEWT_022020.nc | 20-Jan-2026 10:08 | 994675 | ||
| 51001_TS_DEWT_022021.nc | 20-Jan-2026 10:16 | 993919 | ||
| 51001_TS_DEWT_022022.nc | 20-Jan-2026 10:23 | 1142959 | ||
| 51001_TS_DEWT_022023.nc | 20-Jan-2026 10:34 | 1143651 | ||
| 51001_TS_DEWT_022024.nc | 20-Jan-2026 10:41 | 1143535 | ||
| 51001_TS_DEWT_022025.nc | 20-Jan-2026 10:48 | 993441 | ||
| 51001_TS_DEWT_022026.nc | 01-Mar-2026 04:28 | 1143084 | ||
| 51001_TS_DEWT_032016.nc | 23-Dec-2024 22:40 | 1143627 | ||
| 51001_TS_DEWT_032017.nc | 23-Dec-2024 22:44 | 1143124 | ||
| 51001_TS_DEWT_032018.nc | 23-Dec-2024 22:49 | 995821 | ||
| 51001_TS_DEWT_032019.nc | 20-Jan-2026 10:00 | 1143431 | ||
| 51001_TS_DEWT_032020.nc | 20-Jan-2026 10:08 | 1143428 | ||
| 51001_TS_DEWT_032021.nc | 20-Jan-2026 10:17 | 1142670 | ||
| 51001_TS_DEWT_032022.nc | 20-Jan-2026 10:24 | 995782 | ||
| 51001_TS_DEWT_032023.nc | 20-Jan-2026 10:35 | 1143725 | ||
| 51001_TS_DEWT_032024.nc | 20-Jan-2026 10:42 | 995888 | ||
| 51001_TS_DEWT_032025.nc | 20-Jan-2026 10:48 | 996055 | ||
| 51001_TS_DEWT_032026.nc | 25-Mar-2026 06:14 | 918989 | ||
| 51001_TS_DEWT_042016.nc | 23-Dec-2024 22:40 | 1143406 | ||
| 51001_TS_DEWT_042017.nc | 23-Dec-2024 22:44 | 994611 | ||
| 51001_TS_DEWT_042018.nc | 23-Dec-2024 22:49 | 993237 | ||
| 51001_TS_DEWT_042019.nc | 20-Jan-2026 10:01 | 1143182 | ||
| 51001_TS_DEWT_042020.nc | 20-Jan-2026 10:09 | 916541 | ||
| 51001_TS_DEWT_042021.nc | 20-Jan-2026 10:18 | 996141 | ||
| 51001_TS_DEWT_042022.nc | 20-Jan-2026 10:25 | 995276 | ||
| 51001_TS_DEWT_042023.nc | 20-Jan-2026 10:36 | 1143214 | ||
| 51001_TS_DEWT_042024.nc | 20-Jan-2026 10:42 | 1143216 | ||
| 51001_TS_DEWT_042025.nc | 20-Jan-2026 10:49 | 1143289 | ||
| 51001_TS_DEWT_052016.nc | 23-Dec-2024 22:41 | 1143734 | ||
| 51001_TS_DEWT_052017.nc | 23-Dec-2024 22:45 | 995878 | ||
| 51001_TS_DEWT_052019.nc | 20-Jan-2026 10:02 | 1143487 | ||
| 51001_TS_DEWT_052020.nc | 20-Jan-2026 10:10 | 1143722 | ||
| 51001_TS_DEWT_052021.nc | 20-Jan-2026 10:18 | 1143578 | ||
| 51001_TS_DEWT_052022.nc | 20-Jan-2026 10:27 | 1143703 | ||
| 51001_TS_DEWT_052023.nc | 20-Jan-2026 10:36 | 1143389 | ||
| 51001_TS_DEWT_052024.nc | 20-Jan-2026 10:43 | 1143315 | ||
| 51001_TS_DEWT_052025.nc | 20-Jan-2026 10:50 | 918855 | ||
| 51001_TS_DEWT_062016.nc | 23-Dec-2024 22:41 | 916754 | ||
| 51001_TS_DEWT_062017.nc | 23-Dec-2024 22:45 | 992653 | ||
| 51001_TS_DEWT_062019.nc | 20-Jan-2026 10:03 | 992625 | ||
| 51001_TS_DEWT_062020.nc | 20-Jan-2026 10:10 | 994817 | ||
| 51001_TS_DEWT_062021.nc | 20-Jan-2026 10:19 | 994511 | ||
| 51001_TS_DEWT_062022.nc | 20-Jan-2026 10:28 | 993646 | ||
| 51001_TS_DEWT_062023.nc | 20-Jan-2026 10:37 | 993849 | ||
| 51001_TS_DEWT_062024.nc | 20-Jan-2026 10:43 | 918446 | ||
| 51001_TS_DEWT_062025.nc | 20-Jan-2026 10:50 | 994801 | ||
| 51001_TS_DEWT_072016.nc | 23-Dec-2024 22:42 | 994706 | ||
| 51001_TS_DEWT_072017.nc | 23-Dec-2024 22:45 | 995029 | ||
| 51001_TS_DEWT_072019.nc | 20-Jan-2026 10:03 | 994542 | ||
| 51001_TS_DEWT_072020.nc | 20-Jan-2026 10:11 | 995234 | ||
| 51001_TS_DEWT_072021.nc | 20-Jan-2026 10:19 | 995086 | ||
| 51001_TS_DEWT_072022.nc | 20-Jan-2026 10:29 | 994999 | ||
| 51001_TS_DEWT_072023.nc | 20-Jan-2026 10:38 | 995085 | ||
| 51001_TS_DEWT_072024.nc | 20-Jan-2026 10:44 | 914689 | ||
| 51001_TS_DEWT_072025.nc | 20-Jan-2026 10:52 | 994265 | ||
| 51001_TS_DEWT_082015.nc | 23-Dec-2024 22:37 | 993174 | ||
| 51001_TS_DEWT_082017.nc | 23-Dec-2024 22:46 | 916298 | ||
| 51001_TS_DEWT_082019.nc | 20-Jan-2026 10:04 | 993622 | ||
| 51001_TS_DEWT_082020.nc | 20-Jan-2026 10:12 | 994055 | ||
| 51001_TS_DEWT_082022.nc | 20-Jan-2026 10:30 | 1142717 | ||
| 51001_TS_DEWT_082023.nc | 20-Jan-2026 10:38 | 993659 | ||
| 51001_TS_DEWT_082024.nc | 20-Jan-2026 10:45 | 995174 | ||
| 51001_TS_DEWT_082025.nc | 20-Jan-2026 10:53 | 993478 | ||
| 51001_TS_DEWT_092015.nc | 23-Dec-2024 22:37 | 994635 | ||
| 51001_TS_DEWT_092017.nc | 23-Dec-2024 22:46 | 994925 | ||
| 51001_TS_DEWT_092018.nc | 20-Jan-2026 09:56 | 995946 | ||
| 51001_TS_DEWT_092019.nc | 20-Jan-2026 10:05 | 995802 | ||
| 51001_TS_DEWT_092020.nc | 20-Jan-2026 10:12 | 993459 | ||
| 51001_TS_DEWT_092022.nc | 20-Jan-2026 10:31 | 995617 | ||
| 51001_TS_DEWT_092023.nc | 20-Jan-2026 10:39 | 995996 | ||
| 51001_TS_DEWT_092024.nc | 20-Jan-2026 10:45 | 915739 | ||
| 51001_TS_DEWT_092025.nc | 20-Jan-2026 10:54 | 918728 | ||
| 51001_TS_DEWT_102015.nc | 23-Dec-2024 22:38 | 992668 | ||
| 51001_TS_DEWT_102016.nc | 23-Dec-2024 22:42 | 912494 | ||
| 51001_TS_DEWT_102017.nc | 23-Dec-2024 22:47 | 992683 | ||
| 51001_TS_DEWT_102018.nc | 20-Jan-2026 09:57 | 994460 | ||
| 51001_TS_DEWT_102019.nc | 20-Jan-2026 10:05 | 993738 | ||
| 51001_TS_DEWT_102020.nc | 20-Jan-2026 10:13 | 919094 | ||
| 51001_TS_DEWT_102021.nc | 20-Jan-2026 10:20 | 994988 | ||
| 51001_TS_DEWT_102022.nc | 20-Jan-2026 10:32 | 993050 | ||
| 51001_TS_DEWT_102023.nc | 20-Jan-2026 10:39 | 994491 | ||
| 51001_TS_DEWT_102024.nc | 20-Jan-2026 10:46 | 994060 | ||
| 51001_TS_DEWT_102025.nc | 20-Jan-2026 10:54 | 994132 | ||
| 51001_TS_DEWT_112015.nc | 23-Dec-2024 22:38 | 992518 | ||
| 51001_TS_DEWT_112016.nc | 23-Dec-2024 22:42 | 994811 | ||
| 51001_TS_DEWT_112017.nc | 23-Dec-2024 22:47 | 993489 | ||
| 51001_TS_DEWT_112018.nc | 20-Jan-2026 09:58 | 993920 | ||
| 51001_TS_DEWT_112019.nc | 20-Jan-2026 10:06 | 917536 | ||
| 51001_TS_DEWT_112020.nc | 20-Jan-2026 10:13 | 912691 | ||
| 51001_TS_DEWT_112021.nc | 20-Jan-2026 10:20 | 993740 | ||
| 51001_TS_DEWT_112022.nc | 20-Jan-2026 10:32 | 915571 | ||
| 51001_TS_DEWT_112023.nc | 20-Jan-2026 10:40 | 995452 | ||
| 51001_TS_DEWT_112024.nc | 20-Jan-2026 10:46 | 918682 | ||
| 51001_TS_DEWT_112025.nc | 20-Jan-2026 10:55 | 992827 | ||
| 51001_TS_DEWT_122015.nc | 23-Dec-2024 22:39 | 994459 | ||
| 51001_TS_DEWT_122016.nc | 23-Dec-2024 22:43 | 995790 | ||
| 51001_TS_DEWT_122017.nc | 23-Dec-2024 22:48 | 995667 | ||
| 51001_TS_DEWT_122018.nc | 20-Jan-2026 09:58 | 996107 | ||
| 51001_TS_DEWT_122019.nc | 20-Jan-2026 10:06 | 994576 | ||
| 51001_TS_DEWT_122020.nc | 20-Jan-2026 10:14 | 995336 | ||
| 51001_TS_DEWT_122021.nc | 20-Jan-2026 10:22 | 996018 | ||
| 51001_TS_DEWT_122022.nc | 20-Jan-2026 10:33 | 995827 | ||
| 51001_TS_DEWT_122023.nc | 20-Jan-2026 10:40 | 994178 | ||
| 51001_TS_DEWT_122024.nc | 20-Jan-2026 10:47 | 911966 | ||
| 51001_TS_DEWT_122025.nc | 20-Jan-2026 10:56 | 429783 | ||